| time (UTC) | temp F | wind direction | speed knots | gust knots | rain 1hr in | rain 24hr in | rain mn in | humidity % | barometer mb |
| 20260906101042 | 67 | 99 | 1.7 | 7.0 | 0.00 | 0.00 | 0.00 | 54 | 987.2 |
| 20260906100536 | 67 | 108 | 2.6 | 6.1 | 0.00 | 0.00 | 0.00 | 54 | 987.1 |
| 20260906095524 | 67 | 107 | 2.6 | 7.8 | 0.00 | 0.00 | 0.00 | 54 | 987.1 |
| 20260906095018 | 67 | 92 | 1.7 | 5.2 | 0.00 | 0.00 | 0.00 | 54 | 987.0 |
| 20260906093459 | 67 | 86 | 1.7 | 5.2 | 0.00 | 0.00 | 0.00 | 54 | 987.1 |
| 20260906092953 | 67 | 85 | 1.7 | 5.2 | 0.00 | 0.00 | 0.00 | 54 | 987.1 |
| 20260906092447 | 67 | 97 | 1.7 | 3.5 | 0.00 | 0.00 | 0.00 | 55 | 987.1 |
| 20260906091942 | 67 | 100 | 0.9 | 3.5 | 0.00 | 0.00 | 0.00 | 55 | 987.1 |
| 20260906091437 | 67 | 100 | 0.9 | 3.5 | 0.00 | 0.00 | 0.00 | 55 | 987.1 |
| 20260906090423 | 68 | 101 | 1.7 | 3.5 | 0.00 | 0.00 | 0.00 | 55 | 987.2 |
| 20260906085918 | 68 | 101 | 1.7 | 5.2 | 0.00 | 0.00 | 0.00 | 55 | 987.3 |
| 20260906085412 | 68 | 107 | 2.6 | 5.2 | 0.00 | 0.00 | 0.00 | 55 | 987.3 |
| 20260906084359 | 68 | 91 | 2.6 | 7.8 | 0.00 | 0.00 | 0.00 | 55 | 987.1 |
| 20260906083859 | 68 | 96 | 2.6 | 7.8 | 0.00 | 0.00 | 0.00 | 55 | 987.0 |
| 20260906083400 | 68 | 95 | 1.7 | 6.1 | 0.00 | 0.00 | 0.00 | 55 | 987.0 |
| 20260906082901 | 68 | 111 | 1.7 | 5.2 | 0.00 | 0.00 | 0.00 | 55 | 987.1 |
| 20260906082400 | 68 | 138 | 1.7 | 5.2 | 0.00 | 0.00 | 0.00 | 55 | 987.1 |
| 20260906081900 | 68 | 101 | 2.6 | 5.2 | 0.00 | 0.00 | 0.00 | 56 | 987.1 |
| 20260906081358 | 68 | 107 | 2.6 | 7.0 | 0.00 | 0.00 | 0.00 | 56 | 987.1 |
| 20260906080857 | 68 | 78 | 2.6 | 7.0 | 0.00 | 0.00 | 0.00 | 56 | 987.0 |
| 20260906080355 | 69 | 78 | 2.6 | 7.0 | 0.00 | 0.00 | 0.00 | 56 | 987.0 |
| 20260906075855 | 69 | 98 | 1.7 | 5.2 | 0.00 | 0.00 | 0.00 | 56 | 987.2 |
| 20260906075355 | 69 | 90 | 1.7 | 5.2 | 0.00 | 0.00 | 0.00 | 56 | 987.3 |
| 20260906074859 | 69 | 100 | 0.9 | 2.6 | 0.00 | 0.00 | 0.00 | 56 | 987.3 |
| 20260906074358 | 69 | 100 | 0.9 | 3.5 | 0.00 | 0.00 | 0.00 | 57 | 987.4 |
| 20260906073858 | 69 | 100 | 1.7 | 5.2 | 0.00 | 0.00 | 0.00 | 57 | 987.3 |
| 20260906073354 | 69 | 102 | 1.7 | 5.2 | 0.00 | 0.00 | 0.00 | 57 | 987.3 |
| 20260906072855 | 69 | 107 | 2.6 | 7.0 | 0.00 | 0.00 | 0.00 | 57 | 987.2 |
| 20260906071851 | 69 | 88 | 2.6 | 7.0 | 0.00 | 0.00 | 0.00 | 57 | 987.2 |
| 20260906071351 | 70 | 82 | 2.6 | 7.8 | 0.00 | 0.00 | 0.00 | 57 | 987.2 |
| 20260906070851 | 70 | 90 | 2.6 | 7.8 | 0.00 | 0.00 | 0.00 | 57 | 987.3 |
| 20260906065352 | 70 | 65 | 3.5 | 9.6 | 0.00 | 0.00 | 0.00 | 57 | 987.4 |
| 20260906064852 | 70 | 67 | 3.5 | 8.7 | 0.00 | 0.00 | 0.00 | 57 | 987.4 |
| 20260906064352 | 70 | 72 | 3.5 | 7.0 | 0.00 | 0.00 | 0.00 | 57 | 987.4 |
| 20260906063852 | 71 | 82 | 3.5 | 7.8 | 0.00 | 0.00 | 0.00 | 56 | 987.4 |
| 20260906062852 | 71 | 103 | 3.5 | 7.8 | 0.00 | 0.00 | 0.00 | 56 | 987.4 |
| 20260906062351 | 71 | 92 | 2.6 | 7.8 | 0.00 | 0.00 | 0.00 | 57 | 987.6 |
| 20260906061851 | 71 | 80 | 3.5 | 7.0 | 0.00 | 0.00 | 0.00 | 56 | 987.6 |
| 20260906061351 | 71 | 80 | 4.3 | 7.0 | 0.00 | 0.00 | 0.00 | 56 | 987.5 |
| 20260906060852 | 71 | 81 | 3.5 | 10.4 | 0.00 | 0.00 | 0.00 | 57 | 987.5 |
| 20260906060349 | 71 | 68 | 3.5 | 10.4 | 0.00 | 0.00 | 0.00 | 57 | 987.6 |
| 20260906055348 | 72 | 96 | 2.6 | 8.7 | 0.00 | 0.00 | 0.00 | 57 | 987.6 |
| 20260906054847 | 72 | 67 | 3.5 | 8.7 | 0.00 | 0.00 | 0.00 | 57 | 987.5 |
| 20260906054347 | 72 | 109 | 3.5 | 9.6 | 0.00 | 0.00 | 0.00 | 57 | 987.6 |
| 20260906053845 | 72 | 100 | 3.5 | 9.6 | 0.00 | 0.00 | 0.00 | 58 | 987.6 |
| 20260906053346 | 72 | 94 | 2.6 | 10.4 | 0.00 | 0.00 | 0.00 | 58 | 987.5 |
| 20260906052846 | 73 | 69 | 1.7 | 10.4 | 0.00 | 0.00 | 0.00 | 58 | 987.5 |
| 20260906052348 | 73 | 77 | 1.7 | 4.3 | 0.00 | 0.00 | 0.00 | 59 | 987.5 |
| 20260906051846 | 73 | 84 | 1.7 | 7.8 | 0.00 | 0.00 | 0.00 | 59 | 987.4 |
| 20260906051346 | 73 | 74 | 1.7 | 7.8 | 0.00 | 0.00 | 0.00 | 59 | 987.4 |
| 20260906050846 | 73 | 84 | 1.7 | 5.2 | 0.00 | 0.00 | 0.00 | 59 | 987.3 |
| 20260906050343 | 73 | 59 | 1.7 | 5.2 | 0.00 | 0.00 | 0.00 | 59 | 987.3 |
| 20260906045843 | 73 | 51 | 1.7 | 4.3 | 0.00 | 0.00 | 0.00 | 59 | 987.2 |
| 20260906045343 | 73 | 82 | 0.9 | 4.3 | 0.00 | 0.00 | 0.00 | 59 | 987.1 |
| 20260906044842 | 73 | 86 | 0.9 | 5.2 | 0.00 | 0.00 | 0.00 | 59 | 987.1 |
| 20260906044337 | 73 | 84 | 0.9 | 5.2 | 0.00 | 0.00 | 0.00 | 59 | 987.1 |
| 20260906043830 | 73 | 55 | 0.9 | 3.5 | 0.00 | 0.00 | 0.00 | 59 | 987.2 |
| 20260906043324 | 73 | 17 | 0.9 | 3.5 | 0.00 | 0.00 | 0.00 | 60 | 987.2 |
| 20260906042312 | 74 | 0 | 0.0 | 1.7 | 0.00 | 0.00 | 0.00 | 60 | 987.3 |
| 20260906041805 | 74 | 5 | 0.0 | 1.7 | 0.00 | 0.00 | 0.00 | 60 | 987.2 |
| 20260906040754 | 74 | 5 | 0.9 | 3.5 | 0.00 | 0.00 | 0.00 | 60 | 987.0 |
| 20260906040247 | 74 | 50 | 0.9 | 2.6 | 0.00 | 0.00 | 0.00 | 60 | 986.9 |
| 20260906035748 | 74 | 51 | 0.9 | 2.6 | 0.00 | 0.00 | 0.00 | 60 | 986.8 |
| 20260906035246 | 74 | 53 | 0.9 | 3.5 | 0.00 | 0.00 | 0.00 | 60 | 986.7 |
| 20260906034744 | 74 | 54 | 0.9 | 3.5 | 0.00 | 0.00 | 0.00 | 60 | 986.7 |
| 20260906034242 | 74 | 56 | 0.9 | 2.6 | 0.00 | 0.00 | 0.00 | 60 | 986.4 |
| 20260906033240 | 74 | 55 | 0.0 | 2.6 | 0.00 | 0.00 | 0.00 | 60 | 986.3 |
| 20260906032238 | 74 | 56 | 0.9 | 2.6 | 0.00 | 0.00 | 0.00 | 60 | 986.1 |
| 20260906031736 | 75 | 55 | 0.9 | 2.6 | 0.00 | 0.00 | 0.00 | 60 | 986.1 |
| 20260906031236 | 75 | 55 | 0.0 | 1.7 | 0.00 | 0.00 | 0.00 | 60 | 986.1 |
| 20260906030735 | 75 | 55 | 0.0 | 2.6 | 0.00 | 0.00 | 0.00 | 59 | 986.2 |
| 20260906025732 | 75 | 57 | 0.0 | 2.6 | 0.00 | 0.00 | 0.00 | 59 | 986.0 |
| 20260906025231 | 75 | 57 | 0.9 | 2.6 | 0.00 | 0.00 | 0.00 | 59 | 986.0 |
| 20260906024730 | 75 | 57 | 0.9 | 2.6 | 0.00 | 0.00 | 0.00 | 59 | 986.0 |
| 20260906024234 | 75 | 55 | 0.9 | 4.3 | 0.00 | 0.00 | 0.00 | 59 | 986.0 |
| 20260906023730 | 76 | 55 | 1.7 | 4.3 | 0.00 | 0.00 | 0.00 | 59 | 985.9 |
| 20260906023230 | 76 | 85 | 1.7 | 5.2 | 0.00 | 0.00 | 0.00 | 59 | 985.7 |
| 20260906022729 | 76 | 89 | 0.9 | 5.2 | 0.00 | 0.00 | 0.00 | 59 | 985.8 |
| 20260906022225 | 76 | 53 | 0.9 | 4.3 | 0.00 | 0.00 | 0.00 | 59 | 985.7 |
| 20260906021720 | 76 | 59 | 1.7 | 4.3 | 0.00 | 0.00 | 0.00 | 59 | 985.7 |
| 20260906021213 | 76 | 84 | 1.7 | 3.5 | 0.00 | 0.00 | 0.00 | 59 | 985.5 |
| 20260906020707 | 76 | 90 | 1.7 | 3.5 | 0.00 | 0.00 | 0.00 | 59 | 985.3 |
| 20260906020206 | 76 | 93 | 1.7 | 6.1 | 0.00 | 0.00 | 0.00 | 59 | 985.3 |
| 20260906015205 | 76 | 74 | 1.7 | 6.1 | 0.00 | 0.00 | 0.00 | 58 | 985.1 |
| 20260906014706 | 76 | 86 | 1.7 | 6.1 | 0.00 | 0.00 | 0.00 | 58 | 985.1 |
| 20260906014206 | 76 | 90 | 1.7 | 5.2 | 0.00 | 0.00 | 0.00 | 58 | 985.1 |
| 20260906013706 | 76 | 95 | 1.7 | 6.1 | 0.00 | 0.00 | 0.00 | 58 | 985.0 |
| 20260906012206 | 76 | 85 | 2.6 | 7.8 | 0.00 | 0.00 | 0.00 | 58 | 984.9 |
| 20260906011706 | 77 | 76 | 1.7 | 5.2 | 0.00 | 0.00 | 0.00 | 58 | 985.0 |
| 20260906011205 | 77 | 112 | 1.7 | 4.3 | 0.00 | 0.00 | 0.00 | 58 | 984.8 |
| 20260906010703 | 77 | 104 | 0.9 | 4.3 | 0.00 | 0.00 | 0.00 | 58 | 984.7 |
| 20260906010203 | 77 | 86 | 1.7 | 7.0 | 0.00 | 0.00 | 0.00 | 58 | 984.6 |
| 20260906005703 | 77 | 91 | 1.7 | 7.0 | 0.00 | 0.00 | 0.00 | 58 | 984.6 |
| 20260906005203 | 77 | 111 | 1.7 | 5.2 | 0.00 | 0.00 | 0.00 | 58 | 984.5 |
| 20260906004704 | 77 | 90 | 0.9 | 5.2 | 0.00 | 0.00 | 0.00 | 58 | 984.5 |
| 20260906004202 | 77 | 88 | 0.0 | 2.6 | 0.00 | 0.00 | 0.00 | 58 | 984.5 |
| 20260906003701 | 77 | 55 | 0.0 | 2.6 | 0.00 | 0.00 | 0.00 | 57 | 984.6 |
| 20260906003202 | 77 | 69 | 0.0 | 1.7 | 0.00 | 0.00 | 0.00 | 57 | 984.6 |
| 20260906002701 | 77 | 69 | 0.9 | 2.6 | 0.00 | 0.00 | 0.00 | 57 | 984.6 |
| 20260906002201 | 78 | 69 | 0.0 | 2.6 | 0.00 | 0.00 | 0.00 | 57 | 984.7 |
| 20260906001701 | 78 | 64 | 0.0 | 2.6 | 0.00 | 0.00 | 0.00 | 57 | 984.7 |
| 20260906001202 | 78 | 65 | 1.7 | 4.3 | 0.00 | 0.00 | 0.00 | 56 | 984.7 |
| 20260906000701 | 78 | 64 | 1.7 | 7.8 | 0.00 | 0.00 | 0.00 | 56 | 984.8 |
| 20260906000204 | 78 | 62 | 2.6 | 7.8 | 0.00 | 0.00 | 0.00 | 56 | 984.9 |
| 20260905235702 | 78 | 87 | 2.6 | 6.1 | 0.00 | 0.00 | 0.00 | 55 | 985.0 |
| 20260905235202 | 78 | 84 | 2.6 | 6.1 | 0.00 | 0.00 | 0.00 | 55 | 985.0 |
| 20260905234702 | 78 | 76 | 1.7 | 5.2 | 0.00 | 0.00 | 0.00 | 55 | 985.0 |
| 20260905234201 | 78 | 30 | 1.7 | 5.2 | 0.00 | 0.00 | 0.00 | 55 | 985.0 |
| 20260905233702 | 78 | 67 | 1.7 | 5.2 | 0.00 | 0.00 | 0.00 | 55 | 984.8 |
| 20260905233202 | 78 | 39 | 2.6 | 7.0 | 0.00 | 0.00 | 0.00 | 55 | 984.9 |
| 20260905232702 | 78 | 81 | 2.6 | 7.8 | 0.00 | 0.00 | 0.00 | 55 | 985.0 |
| 20260905232202 | 79 | 49 | 3.5 | 9.6 | 0.00 | 0.00 | 0.00 | 54 | 985.1 |
| 20260905231701 | 79 | 74 | 3.5 | 9.6 | 0.00 | 0.00 | 0.00 | 54 | 985.1 |
| 20260905231201 | 79 | 76 | 3.5 | 9.6 | 0.00 | 0.01 | 0.00 | 54 | 985.0 |
| 20260905230701 | 79 | 65 | 3.5 | 9.6 | 0.00 | 0.01 | 0.00 | 54 | 985.0 |
| 20260905230201 | 79 | 69 | 3.5 | 9.6 | 0.00 | 0.01 | 0.00 | 54 | 984.9 |
| 20260905225201 | 80 | 49 | 2.6 | 9.6 | 0.00 | 0.01 | 0.00 | 54 | 985.0 |
| 20260905224659 | 80 | 110 | 3.5 | 9.6 | 0.00 | 0.01 | 0.00 | 54 | 985.0 |
| 20260905224159 | 80 | 65 | 3.5 | 9.6 | 0.00 | 0.01 | 0.00 | 54 | 985.0 |
| 20260905222659 | 82 | 47 | 4.3 | 9.6 | 0.00 | 0.01 | 0.00 | 52 | 985.0 |
| 20260905222152 | 83 | 90 | 3.5 | 9.6 | 0.00 | 0.01 | 0.00 | 51 | 985.0 |
| 20260905221645 | 83 | 82 | 3.5 | 8.7 | 0.00 | 0.01 | 0.00 | 51 | 984.9 |
| 20260905221139 | 83 | 14 | 3.5 | 9.6 | 0.00 | 0.01 | 0.00 | 51 | 984.8 |
| 20260905220633 | 83 | 25 | 4.3 | 9.6 | 0.00 | 0.01 | 0.00 | 51 | 984.8 |
| 20260905220127 | 82 | 61 | 2.6 | 8.7 | 0.00 | 0.01 | 0.00 | 52 | 984.8 |
| 20260905214609 | 82 | 55 | 3.5 | 7.8 | 0.00 | 0.01 | 0.00 | 52 | 984.9 |
| 20260905214104 | 82 | 47 | 2.6 | 7.8 | 0.00 | 0.01 | 0.00 | 53 | 984.9 |
| 20260905213554 | 82 | 41 | 2.6 | 7.8 | 0.00 | 0.01 | 0.00 | 52 | 984.9 |
| 20260905213047 | 82 | 57 | 2.6 | 7.8 | 0.00 | 0.01 | 0.00 | 51 | 984.8 |
| 20260905212541 | 82 | 5 | 2.6 | 7.8 | 0.00 | 0.01 | 0.00 | 53 | 984.8 |
| 20260905212034 | 82 | 55 | 3.5 | 7.8 | 0.00 | 0.01 | 0.00 | 53 | 984.7 |
| 20260905211527 | 83 | 52 | 3.5 | 7.8 | 0.00 | 0.01 | 0.00 | 52 | 984.6 |
| 20260905211021 | 83 | 59 | 2.6 | 7.8 | 0.00 | 0.01 | 0.00 | 52 | 984.7 |
| 20260905210516 | 83 | 350 | 2.6 | 5.2 | 0.00 | 0.01 | 0.00 | 53 | 984.7 |
| 20260905210009 | 82 | 351 | 2.6 | 5.2 | 0.00 | 0.01 | 0.00 | 54 | 984.8 |
| 20260905205504 | 82 | 298 | 2.6 | 7.8 | 0.00 | 0.01 | 0.00 | 54 | 984.9 |
| 20260905204957 | 82 | 63 | 3.5 | 7.8 | 0.00 | 0.01 | 0.00 | 53 | 984.8 |
| 20260905204451 | 83 | 78 | 2.6 | 7.8 | 0.00 | 0.01 | 0.00 | 53 | 984.7 |
| 20260905203439 | 82 | 52 | 2.6 | 7.0 | 0.00 | 0.01 | 0.00 | 54 | 984.8 |
| 20260905202933 | 82 | 67 | 2.6 | 7.0 | 0.00 | 0.01 | 0.00 | 55 | 984.8 |
| 20260905202428 | 81 | 79 | 2.6 | 6.1 | 0.00 | 0.01 | 0.00 | 55 | 984.7 |
| 20260905201922 | 81 | 16 | 2.6 | 7.0 | 0.00 | 0.01 | 0.00 | 55 | 984.6 |
| 20260905200910 | 82 | 51 | 2.6 | 7.8 | 0.00 | 0.01 | 0.00 | 54 | 985.0 |
| 20260905200403 | 82 | 67 | 2.6 | 7.8 | 0.00 | 0.01 | 0.00 | 53 | 985.0 |
| 20260905195858 | 83 | 74 | 2.6 | 7.8 | 0.00 | 0.01 | 0.00 | 53 | 985.0 |
| 20260905195352 | 83 | 59 | 1.7 | 4.3 | 0.00 | 0.01 | 0.00 | 52 | 985.0 |
| 20260905194846 | 82 | 316 | 2.6 | 7.0 | 0.00 | 0.01 | 0.00 | 53 | 985.1 |
| 20260905194340 | 82 | 323 | 2.6 | 7.0 | 0.00 | 0.01 | 0.00 | 53 | 985.0 |
| 20260905193833 | 81 | 5 | 2.6 | 7.0 | 0.00 | 0.01 | 0.00 | 52 | 985.1 |
| 20260905193328 | 80 | 355 | 2.6 | 7.0 | 0.00 | 0.01 | 0.00 | 53 | 985.1 |
| 20260905192822 | 80 | 40 | 2.6 | 7.8 | 0.00 | 0.01 | 0.00 | 54 | 985.2 |
| 20260905192316 | 80 | 355 | 3.5 | 8.7 | 0.00 | 0.01 | 0.00 | 54 | 985.2 |
| 20260905191810 | 79 | 67 | 2.6 | 8.7 | 0.00 | 0.01 | 0.00 | 54 | 985.2 |
| 20260905191304 | 79 | 19 | 1.7 | 6.1 | 0.00 | 0.01 | 0.00 | 56 | 985.2 |
| 20260905190756 | 79 | 63 | 2.6 | 7.0 | 0.00 | 0.01 | 0.00 | 55 | 985.3 |
| 20260905190252 | 79 | 67 | 2.6 | 7.0 | 0.00 | 0.01 | 0.00 | 55 | 985.2 |
| 20260905185745 | 78 | 76 | 3.5 | 7.8 | 0.00 | 0.01 | 0.00 | 55 | 985.4 |
| 20260905185239 | 79 | 31 | 2.6 | 7.8 | 0.00 | 0.01 | 0.00 | 55 | 985.4 |
| 20260905184734 | 79 | 49 | 1.7 | 7.8 | 0.00 | 0.01 | 0.00 | 55 | 985.4 |
| 20260905184229 | 79 | 85 | 2.6 | 6.1 | 0.00 | 0.01 | 0.00 | 55 | 985.5 |
| 20260905183722 | 79 | 40 | 2.6 | 7.0 | 0.00 | 0.01 | 0.00 | 55 | 985.4 |
| 20260905183219 | 79 | 22 | 2.6 | 7.0 | 0.00 | 0.01 | 0.00 | 55 | 985.3 |
| 20260905181657 | 79 | 61 | 3.5 | 8.7 | 0.00 | 0.01 | 0.00 | 55 | 985.2 |
| 20260905181152 | 79 | 12 | 3.5 | 8.7 | 0.00 | 0.01 | 0.00 | 55 | 985.2 |
| 20260905180646 | 79 | 67 | 3.5 | 7.8 | 0.00 | 0.01 | 0.00 | 55 | 985.1 |
| 20260905180140 | 79 | 48 | 3.5 | 7.8 | 0.00 | 0.01 | 0.00 | 55 | 985.1 |
| 20260905175634 | 79 | 19 | 2.6 | 7.8 | 0.00 | 0.01 | 0.00 | 55 | 985.1 |
| 20260905175127 | 79 | 38 | 2.6 | 6.1 | 0.00 | 0.01 | 0.00 | 55 | 985.2 |
| 20260905174621 | 79 | 46 | 2.6 | 7.8 | 0.00 | 0.01 | 0.00 | 55 | 985.3 |
| 20260905173609 | 79 | 94 | 2.6 | 7.0 | 0.00 | 0.01 | 0.00 | 55 | 985.4 |
| 20260905172558 | 79 | 71 | 3.5 | 7.8 | 0.00 | 0.01 | 0.00 | 55 | 985.3 |
| 20260905172051 | 79 | 66 | 3.5 | 7.0 | 0.00 | 0.01 | 0.00 | 54 | 985.4 |
| 20260905171546 | 80 | 74 | 2.6 | 7.0 | 0.00 | 0.01 | 0.00 | 54 | 985.4 |
| 20260905171040 | 80 | 68 | 1.7 | 5.2 | 0.00 | 0.01 | 0.00 | 54 | 985.5 |
| 20260905170533 | 80 | 59 | 2.6 | 7.0 | 0.00 | 0.01 | 0.00 | 54 | 985.7 |
| 20260905170028 | 80 | 64 | 2.6 | 7.0 | 0.00 | 0.01 | 0.00 | 54 | 985.7 |
| 20260905165015 | 80 | 51 | 1.7 | 5.2 | 0.00 | 0.01 | 0.00 | 53 | 985.7 |
| 20260905164509 | 80 | 51 | 1.7 | 5.2 | 0.00 | 0.01 | 0.00 | 54 | 985.7 |
| 20260905163000 | 80 | 84 | 2.6 | 9.6 | 0.00 | 0.01 | 0.00 | 54 | 985.6 |
| 20260905162459 | 80 | 31 | 2.6 | 7.8 | 0.00 | 0.01 | 0.00 | 53 | 985.9 |
| 20260905161959 | 80 | 73 | 2.6 | 7.8 | 0.00 | 0.01 | 0.00 | 53 | 986.0 |
| 20260905161459 | 80 | 123 | 2.6 | 8.7 | 0.00 | 0.01 | 0.00 | 53 | 985.8 |
| 20260905160957 | 80 | 67 | 2.6 | 8.7 | 0.00 | 0.01 | 0.00 | 52 | 985.9 |
| 20260905160457 | 80 | 45 | 2.6 | 7.8 | 0.00 | 0.01 | 0.00 | 52 | 985.8 |
| 20260905155957 | 80 | 56 | 3.5 | 7.8 | 0.00 | 0.01 | 0.00 | 52 | 985.6 |
| 20260905155456 | 79 | 355 | 4.3 | 7.8 | 0.00 | 0.01 | 0.00 | 53 | 985.6 |
| 20260905154955 | 79 | 73 | 4.3 | 7.8 | 0.00 | 0.01 | 0.00 | 53 | 985.6 |
| 20260905154454 | 80 | 63 | 2.6 | 7.8 | 0.00 | 0.01 | 0.00 | 52 | 985.6 |
| 20260905153955 | 80 | 326 | 2.6 | 8.7 | 0.00 | 0.01 | 0.00 | 53 | 985.5 |
| 20260905153453 | 80 | 336 | 3.5 | 8.7 | 0.00 | 0.01 | 0.00 | 53 | 985.5 |
| 20260905152450 | 79 | 27 | 2.6 | 7.8 | 0.00 | 0.01 | 0.00 | 53 | 985.4 |
| 20260905151951 | 79 | 339 | 2.6 | 7.8 | 0.00 | 0.01 | 0.00 | 52 | 985.4 |
| 20260905150949 | 78 | 58 | 3.5 | 6.1 | 0.00 | 0.01 | 0.00 | 52 | 985.2 |
| 20260905150449 | 78 | 19 | 3.5 | 7.8 | 0.00 | 0.01 | 0.00 | 52 | 985.2 |
| 20260905145950 | 78 | 32 | 3.5 | 7.8 | 0.00 | 0.01 | 0.00 | 51 | 985.1 |
| 20260905145448 | 78 | 83 | 2.6 | 7.0 | 0.00 | 0.01 | 0.00 | 51 | 985.0 |
| 20260905144949 | 77 | 28 | 2.6 | 5.2 | 0.00 | 0.01 | 0.00 | 51 | 985.0 |
| 20260905144448 | 77 | 68 | 2.6 | 6.1 | 0.00 | 0.01 | 0.00 | 51 | 984.8 |
| 20260905143949 | 77 | 5 | 1.7 | 6.1 | 0.00 | 0.01 | 0.00 | 51 | 984.9 |
| 20260905143449 | 77 | 55 | 1.7 | 5.2 | 0.00 | 0.01 | 0.00 | 50 | 984.8 |
| 20260905142950 | 76 | 344 | 2.6 | 7.0 | 0.00 | 0.01 | 0.00 | 50 | 984.8 |
| 20260905142445 | 76 | 327 | 1.7 | 7.0 | 0.00 | 0.01 | 0.00 | 49 | 984.9 |
| 20260905141945 | 76 | 340 | 2.6 | 5.2 | 0.00 | 0.01 | 0.00 | 49 | 984.8 |
| 20260905141445 | 76 | 344 | 2.6 | 7.0 | 0.00 | 0.01 | 0.00 | 49 | 984.6 |
| 20260905140944 | 75 | 347 | 1.7 | 7.0 | 0.00 | 0.01 | 0.00 | 50 | 984.7 |
| 20260905140444 | 75 | 347 | 0.9 | 4.3 | 0.00 | 0.01 | 0.00 | 55 | 984.7 |
| 20260905135944 | 75 | 351 | 0.9 | 4.3 | 0.00 | 0.01 | 0.00 | 57 | 984.6 |
| 20260905135444 | 74 | 351 | 0.9 | 3.5 | 0.00 | 0.01 | 0.00 | 57 | 984.6 |
| 20260905134944 | 74 | 355 | 0.9 | 2.6 | 0.00 | 0.01 | 0.00 | 58 | 984.4 |
| 20260905133945 | 73 | 355 | 0.9 | 2.6 | 0.00 | 0.01 | 0.00 | 58 | 984.3 |
| 20260905133445 | 73 | 355 | 0.9 | 1.7 | 0.00 | 0.01 | 0.00 | 58 | 984.2 |
| 20260905132944 | 73 | 355 | 0.9 | 3.5 | 0.00 | 0.01 | 0.00 | 58 | 984.1 |
| 20260905132444 | 73 | 355 | 1.7 | 4.3 | 0.00 | 0.01 | 0.00 | 58 | 984.1 |
| 20260905131944 | 73 | 355 | 0.9 | 4.3 | 0.00 | 0.01 | 0.00 | 58 | 984.0 |
| 20260905131445 | 73 | 348 | 0.9 | 2.6 | 0.00 | 0.01 | 0.00 | 58 | 984.1 |
| 20260905130445 | 73 | 348 | 1.7 | 4.3 | 0.00 | 0.01 | 0.00 | 57 | 984.1 |
| 20260905125945 | 73 | 344 | 1.7 | 3.5 | 0.00 | 0.01 | 0.00 | 57 | 984.1 |
| 20260905125444 | 73 | 342 | 1.7 | 3.5 | 0.00 | 0.01 | 0.00 | 57 | 984.0 |
| 20260905124937 | 73 | 340 | 0.9 | 3.5 | 0.00 | 0.01 | 0.00 | 57 | 984.0 |
| 20260905124432 | 73 | 337 | 0.9 | 3.5 | 0.00 | 0.01 | 0.00 | 58 | 983.9 |
| 20260905123926 | 73 | 336 | 0.0 | 0.0 | 0.00 | 0.01 | 0.00 | 58 | 983.9 |
| 20260905123420 | 73 | 336 | 0.0 | 0.0 | 0.00 | 0.01 | 0.00 | 58 | 983.7 |
| 20260905122408 | 72 | 336 | 0.0 | 0.0 | 0.00 | 0.01 | 0.00 | 58 | 983.5 |
| 20260905121901 | 72 | 336 | 0.0 | 0.0 | 0.00 | 0.01 | 0.00 | 58 | 983.5 |
| 20260905121355 | 72 | 335 | 0.0 | 0.0 | 0.00 | 0.01 | 0.00 | 58 | 983.4 |
| 20260905120344 | 72 | 335 | 0.0 | 0.9 | 0.00 | 0.01 | 0.00 | 58 | 983.5 |
| 20260905115837 | 71 | 335 | 0.0 | 2.6 | 0.00 | 0.01 | 0.00 | 58 | 983.5 |
| 20260905114826 | 71 | 335 | 0.9 | 1.7 | 0.00 | 0.01 | 0.00 | 57 | 983.4 |
| 20260905114320 | 72 | 335 | 0.9 | 2.6 | 0.00 | 0.01 | 0.00 | 57 | 983.5 |
| 20260905113813 | 72 | 335 | 0.9 | 2.6 | 0.00 | 0.01 | 0.00 | 57 | 983.4 |
| 20260905113307 | 72 | 335 | 0.9 | 1.7 | 0.00 | 0.01 | 0.00 | 57 | 983.2 |
| 20260905112802 | 72 | 335 | 0.9 | 1.7 | 0.00 | 0.01 | 0.00 | 57 | 983.0 |
| 20260905112257 | 72 | 335 | 0.9 | 2.6 | 0.00 | 0.01 | 0.00 | 56 | 983.0 |
| 20260905111750 | 72 | 335 | 0.9 | 2.6 | 0.00 | 0.01 | 0.00 | 56 | 982.7 |
| 20260905111244 | 72 | 335 | 0.9 | 2.6 | 0.00 | 0.01 | 0.00 | 56 | 982.6 |
| 20260905110738 | 72 | 335 | 1.7 | 2.6 | 0.00 | 0.01 | 0.00 | 55 | 982.6 |
| 20260905110231 | 72 | 335 | 1.7 | 3.5 | 0.00 | 0.01 | 0.00 | 55 | 982.5 |
| 20260905105726 | 72 | 334 | 0.9 | 3.5 | 0.00 | 0.01 | 0.00 | 55 | 982.6 |
| 20260905105220 | 72 | 334 | 0.9 | 2.6 | 0.00 | 0.01 | 0.00 | 54 | 982.6 |
| 20260905104714 | 72 | 334 | 0.9 | 2.6 | 0.00 | 0.01 | 0.00 | 54 | 982.5 |
| 20260905103702 | 72 | 334 | 0.9 | 2.6 | 0.00 | 0.01 | 0.00 | 54 | 982.3 |
| 20260905103157 | 72 | 334 | 1.7 | 3.5 | 0.00 | 0.01 | 0.00 | 53 | 982.3 |
| 20260905102650 | 72 | 334 | 1.7 | 3.5 | 0.00 | 0.01 | 0.00 | 53 | 982.3 |
| 20260905102143 | 72 | 333 | 0.9 | 2.6 | 0.00 | 0.01 | 0.00 | 53 | 982.3 |
| 20260905101637 | 72 | 333 | 0.9 | 2.6 | 0.00 | 0.01 | 0.00 | 53 | 982.4 |